Terug naar catalogus

DELTA 1 DEB

ActiefSSO
NORAD 13575·DEBRIS·🇺🇸 United States

Gelanceerd Mar 5, 1978 vanaf Vandenberg Space Force Base

Loading…

Volgende Passages (komende 24 uur)

TLE

VersSource: Space-Track

Epoch: Sep 14, 2026, 11:58 UTC

1 13575U 78026FN  26257.49925158  .00000281  00000-0  20110-3 0  9997
2 13575  99.2007 283.6993 0019061 171.9972 188.1502 14.05475358317573

Volg DELTA 1 DEB in realtime met AllMySat

Download on the App Store